Regional Weather Roundup
Issued by NWS Kansas City/Pleasant Hill, MO

Home | Current Version | Previous Version | Text Only | Print | Product List | Glossary On
Versions: 1 2 3 4 5 6 7 8 9 10 11 12 13 14 15 16 17 18 19 20 21 22 23 24 25 26 27 28 29 30 31 32 33 34 35 36 37 38 39 40 41 42 43 44 45 46 47 48 49 50
000
ASUS43 KEAX 191111
RWREAX

WEATHER ROUNDUP FOR EASTERN KANSAS AND NORTHWEST MISSOURI
NATIONAL WEATHER SERVICE KANSAS CITY/PLEASANT HILL MO
600 AM CDT FRI SEP 19 2014

KSZ040-057-103>105-MOZ028-029-037-043-191200-
...KANSAS CITY METROPOLITAN AREA...

CITY           SKY/WX    TMP DP  RH WIND       PRES   REMARKS
K.C. INTL      CLOUDY    62  61  96 S10       30.01R
K.C. DOWNTOWN  CLOUDY    64  61  90 S7        30.01R
LEES SUMMIT    CLOUDY    62  60  93 SE6       30.03R FOG
OLATHE - IXD   CLOUDY    62  61  96 SE9       30.01S
OLATHE - OJC   CLOUDY   N/A N/A N/A S9        30.01R FOG
LAWRENCE       CLOUDY    62  60  93 SE7       30.00R FOG

$$

MOZ001>008-011>017-020>025-030>033-038>040-044>046-053-054-191200-
...NORTHERN AND CENTRAL MISSOURI...

CITY           SKY/WX    TMP DP  RH WIND       PRES   REMARKS
ST. JOSEPH     CLOUDY    62  61  96 SE8       30.01R FOG
MOSBY          FOG       61  61 100 SE5       30.03R VSB 1/4
WHITEMAN AFB   FOG       58  57  98 SE5       30.04R VSB 3/4
CLINTON        CLEAR     59  59 100 CALM      30.03S FOG
SEDALIA        FOG       60  59  96 SE8       30.05R VSB 1/4
WARSAW         NOT AVBL
MARSHALL       FOG       61  61 100 CALM      30.06R VSB 1/4
CHILLICOTHE      N/A     57  55  93 CALM      30.06R
MOBERLY        CLEAR     55  52  88 SE5       30.07S
KIRKSVILLE     CLEAR     51  50  96 SE6       30.06F

$$

MOZ041-047>049-056>058-063>065-088>090-097-191200-
...EASTERN AND SOUTHERN MISSOURI...

CITY           SKY/WX    TMP DP  RH WIND       PRES   REMARKS
ST. LOUIS INTL CLEAR     56  52  86 E3        30.09R
SPIRIT OF STL  CLEAR     51  49  92 CALM      30.07S FOG
COLUMBIA       CLEAR     57  54  89 E7          N/A
JEFFERSON CITY CLEAR     54  53  97 CALM      30.06R FOG
MEXICO         CLEAR    N/A N/A N/A CALM      30.08R HAZE
HANNIBAL       CLEAR     55  54  94 E3        30.08S
ROLLA          CLEAR     56  54  93 E6        30.05S FOG
LEBANON        FOG       55  54  94 CALM      30.06S VSB 1/2
OSAGE BEACH    CLOUDY    55  54  94 CALM      30.06S
SPRINGFIELD    CLEAR     61  59  93 SE7       30.03R
BRANSON        CLOUDY    63  61  94 CALM      30.05R FOG
NEVADA         CLEAR     59  57  94 E3        30.02S FOG
JOPLIN         PTCLDY    63  61  93 S7        30.01R
WEST PLAINS    CLEAR     54  52  93 NE3       30.06R FOG

$$

IAZ060-094-KSZ022-034>040-054-083-096-NEZ052-066-093-191200-
...KANSAS...SOUTHEAST NEBRASKA AND IOWA...

CITY           SKY/WX    TMP DP  RH WIND       PRES   REMARKS
TOPEKA         CLOUDY    64  63  96 SE6       29.99S
MANHATTAN      CLEAR     62  61  96 CALM      29.96R
EMPORIA        CLOUDY    63  63 100 S9        29.98S FOG
CHANUTE        MOCLDY    62  61  96 SE8       30.00R
WICHITA        CLEAR     65  62  90 SE7       29.96R
OMAHA          CLOUDY    63  60  90 S15       29.94F FOG
LINCOLN        CLEAR     63  61  93 S10       29.92F
FALLS CITY     CLOUDY    62  62 100 SE8       29.98R FOG
LAMONI         CLEAR     56  54  93 SE7       30.02S
DES MOINES     PTCLDY    58  53  84 SE9       30.01S

$$



USA.gov is the U.S. government's official web portal to all federal, state and local government web resources and services.